| time (UTC) | temp C | wind direction | speed KPH | gust KPH | rain 1hr cm | rain 24hr cm | rain mn cm | humidity % | barometer mb |
| 20260901161507 | 19 | 115 | 3.2 | 9.7 | 0.00 | 0.43 | 0.43 | 94 | 1012.9 |
| 20260901161005 | 19 | 109 | 4.8 | 11.3 | 0.00 | 0.43 | 0.43 | 94 | 1012.9 |
| 20260901160504 | 18 | 105 | 4.8 | 12.9 | 0.00 | 0.43 | 0.43 | 94 | 1013.0 |
| 20260901160006 | 18 | 98 | 4.8 | 12.9 | 0.00 | 0.43 | 0.43 | 94 | 1013.0 |
| 20260901155504 | 18 | 153 | 6.4 | 14.5 | 0.00 | 0.43 | 0.43 | 94 | 1012.9 |
| 20260901155003 | 18 | 127 | 4.8 | 14.5 | 0.00 | 0.43 | 0.43 | 95 | 1012.9 |
| 20260901154503 | 18 | 126 | 4.8 | 14.5 | 0.00 | 0.43 | 0.43 | 95 | 1012.9 |
| 20260901154002 | 18 | 136 | 4.8 | 14.5 | 0.00 | 0.43 | 0.43 | 95 | 1012.9 |
| 20260901153503 | 18 | 138 | 6.4 | 11.3 | 0.03 | 0.43 | 0.43 | 95 | 1012.9 |
| 20260901153001 | 18 | 142 | 4.8 | 11.3 | 0.03 | 0.43 | 0.43 | 95 | 1013.0 |
| 20260901152601 | 18 | 137 | 3.2 | 12.9 | 0.03 | 0.43 | 0.43 | 95 | 1012.9 |
| 20260901152104 | 18 | 131 | 6.4 | 12.9 | 0.03 | 0.43 | 0.43 | 95 | 1012.9 |
| 20260901151600 | 18 | 146 | 4.8 | 12.9 | 0.03 | 0.43 | 0.43 | 95 | 1013.0 |
| 20260901151059 | 18 | 133 | 6.4 | 12.9 | 0.03 | 0.43 | 0.43 | 95 | 1013.0 |
| 20260901150557 | 18 | 107 | 4.8 | 12.9 | 0.03 | 0.43 | 0.43 | 95 | 1013.1 |
| 20260901150107 | 18 | 100 | 3.2 | 9.7 | 0.03 | 0.43 | 0.43 | 95 | 1013.3 |
| 20260901145557 | 18 | 106 | 3.2 | 11.3 | 0.03 | 0.43 | 0.43 | 95 | 1013.3 |
| 20260901145058 | 18 | 91 | 4.8 | 11.3 | 0.03 | 0.43 | 0.43 | 95 | 1013.2 |
| 20260901144559 | 18 | 94 | 3.2 | 9.7 | 0.03 | 0.43 | 0.43 | 95 | 1013.3 |
| 20260901144056 | 18 | 111 | 1.6 | 9.7 | 0.03 | 0.43 | 0.43 | 95 | 1013.3 |
| 20260901143556 | 18 | 136 | 1.6 | 9.7 | 0.00 | 0.41 | 0.41 | 95 | 1013.2 |
| 20260901143056 | 18 | 132 | 1.6 | 8.0 | 0.00 | 0.41 | 0.41 | 95 | 1013.2 |
| 20260901142556 | 18 | 94 | 4.8 | 8.0 | 0.00 | 0.41 | 0.41 | 95 | 1013.3 |
| 20260901142055 | 18 | 88 | 4.8 | 9.7 | 0.00 | 0.41 | 0.41 | 95 | 1013.3 |
| 20260901141602 | 18 | 96 | 4.8 | 9.7 | 0.00 | 0.41 | 0.41 | 95 | 1013.3 |
| 20260901141058 | 18 | 98 | 4.8 | 8.0 | 0.00 | 0.41 | 0.41 | 95 | 1013.0 |
| 20260901140554 | 18 | 94 | 4.8 | 8.0 | 0.00 | 0.41 | 0.41 | 95 | 1013.0 |
| 20260901140058 | 18 | 73 | 1.6 | 9.7 | 0.00 | 0.41 | 0.41 | 95 | 1012.9 |
| 20260901135556 | 18 | 103 | 3.2 | 9.7 | 0.00 | 0.41 | 0.41 | 95 | 1013.1 |
| 20260901135055 | 18 | 122 | 1.6 | 6.4 | 0.00 | 0.41 | 0.41 | 95 | 1013.0 |
| 20260901134554 | 18 | 105 | 1.6 | 11.3 | 0.00 | 0.41 | 0.41 | 95 | 1013.0 |
| 20260901134057 | 18 | 96 | 3.2 | 11.3 | 0.00 | 0.41 | 0.41 | 95 | 1012.9 |
| 20260901133553 | 18 | 108 | 4.8 | 9.7 | 0.00 | 0.41 | 0.41 | 95 | 1012.9 |
| 20260901133054 | 18 | 115 | 1.6 | 8.0 | 0.00 | 0.41 | 0.41 | 95 | 1013.0 |
| 20260901132553 | 18 | 130 | 4.8 | 11.3 | 0.00 | 0.41 | 0.41 | 95 | 1013.0 |
| 20260901132054 | 17 | 134 | 4.8 | 11.3 | 0.00 | 0.41 | 0.41 | 95 | 1013.1 |
| 20260901131553 | 18 | 146 | 1.6 | 8.0 | 0.00 | 0.41 | 0.41 | 95 | 1013.3 |
| 20260901131051 | 17 | 120 | 3.2 | 9.7 | 0.00 | 0.41 | 0.41 | 95 | 1013.5 |
| 20260901130550 | 17 | 103 | 3.2 | 8.0 | 0.00 | 0.41 | 0.41 | 95 | 1013.5 |
| 20260901130050 | 17 | 103 | 4.8 | 11.3 | 0.00 | 0.41 | 0.41 | 95 | 1013.5 |
| 20260901125550 | 17 | 123 | 3.2 | 11.3 | 0.00 | 0.41 | 0.41 | 95 | 1013.6 |
| 20260901125050 | 17 | 15 | 3.2 | 11.3 | 0.00 | 0.41 | 0.41 | 95 | 1013.5 |
| 20260901124551 | 17 | 121 | 3.2 | 9.7 | 0.00 | 0.41 | 0.41 | 95 | 1013.6 |
| 20260901124052 | 17 | 96 | 3.2 | 8.0 | 0.00 | 0.41 | 0.41 | 95 | 1013.6 |
| 20260901123550 | 17 | 134 | 3.2 | 9.7 | 0.00 | 0.41 | 0.41 | 95 | 1013.6 |
| 20260901123053 | 17 | 102 | 1.6 | 9.7 | 0.00 | 0.41 | 0.41 | 95 | 1013.7 |
| 20260901122550 | 17 | 114 | 3.2 | 11.3 | 0.00 | 0.41 | 0.41 | 95 | 1013.7 |
| 20260901122049 | 17 | 101 | 4.8 | 11.3 | 0.00 | 0.41 | 0.41 | 95 | 1013.7 |
| 20260901121551 | 17 | 102 | 3.2 | 8.0 | 0.00 | 0.41 | 0.41 | 95 | 1013.8 |
| 20260901121052 | 17 | 134 | 3.2 | 9.7 | 0.00 | 0.41 | 0.41 | 95 | 1014.0 |
| 20260901120552 | 17 | 142 | 3.2 | 8.0 | 0.00 | 0.41 | 0.41 | 95 | 1014.0 |
| 20260901120106 | 17 | 126 | 4.8 | 9.7 | 0.00 | 0.41 | 0.41 | 95 | 1014.0 |
| 20260901115549 | 17 | 139 | 4.8 | 11.3 | 0.00 | 0.41 | 0.41 | 95 | 1013.9 |
| 20260901115048 | 17 | 103 | 3.2 | 9.7 | 0.00 | 0.41 | 0.41 | 95 | 1013.9 |
| 20260901114552 | 17 | 76 | 4.8 | 8.0 | 0.00 | 0.41 | 0.41 | 94 | 1014.1 |
| 20260901114047 | 17 | 119 | 4.8 | 8.0 | 0.00 | 0.41 | 0.41 | 94 | 1013.9 |
| 20260901113547 | 18 | 103 | 3.2 | 6.4 | 0.03 | 0.41 | 0.41 | 95 | 1013.9 |
| 20260901113056 | 18 | 113 | 1.6 | 6.4 | 0.05 | 0.41 | 0.41 | 95 | 1013.9 |
| 20260901112546 | 18 | 111 | 0.0 | 6.4 | 0.05 | 0.41 | 0.41 | 95 | 1013.7 |
| 20260901112047 | 18 | 78 | 1.6 | 6.4 | 0.08 | 0.41 | 0.41 | 95 | 1013.8 |
| 20260901111547 | 18 | 102 | 3.2 | 6.4 | 0.08 | 0.41 | 0.41 | 95 | 1013.7 |
| 20260901111045 | 18 | 128 | 0.0 | 3.2 | 0.08 | 0.41 | 0.41 | 95 | 1013.7 |
| 20260901110546 | 18 | 219 | 0.0 | 0.0 | 0.08 | 0.41 | 0.41 | 94 | 1013.8 |
| 20260901110050 | 18 | 219 | 0.0 | 1.6 | 0.08 | 0.41 | 0.41 | 94 | 1013.9 |
| 20260901105546 | 18 | 219 | 0.0 | 1.6 | 0.08 | 0.41 | 0.41 | 95 | 1013.8 |
| 20260901105048 | 18 | 219 | 0.0 | 1.6 | 0.08 | 0.41 | 0.41 | 95 | 1014.0 |
| 20260901104545 | 18 | 219 | 0.0 | 1.6 | 0.08 | 0.41 | 0.41 | 95 | 1014.0 |
| 20260901104045 | 18 | 219 | 0.0 | 4.8 | 0.08 | 0.41 | 0.41 | 95 | 1013.7 |
| 20260901103544 | 18 | 221 | 0.0 | 4.8 | 0.05 | 0.38 | 0.38 | 95 | 1013.7 |
| 20260901103054 | 18 | 221 | 0.0 | 1.6 | 0.03 | 0.36 | 0.36 | 94 | 1013.8 |
| 20260901102544 | 18 | 221 | 0.0 | 1.6 | 0.00 | 0.33 | 0.33 | 94 | 1013.6 |
| 20260901102044 | 18 | 247 | 0.0 | 0.0 | 0.00 | 0.33 | 0.33 | 94 | 1013.9 |
| 20260901101544 | 18 | 247 | 0.0 | 0.0 | 0.00 | 0.33 | 0.33 | 94 | 1013.8 |
| 20260901101043 | 18 | 247 | 0.0 | 0.0 | 0.00 | 0.33 | 0.33 | 94 | 1013.8 |
| 20260901100546 | 18 | 247 | 0.0 | 0.0 | 0.00 | 0.33 | 0.33 | 94 | 1013.7 |
| 20260901100043 | 18 | 247 | 0.0 | 0.0 | 0.05 | 0.33 | 0.33 | 94 | 1013.7 |
| 20260901095543 | 18 | 247 | 0.0 | 1.6 | 0.10 | 0.33 | 0.33 | 94 | 1013.7 |
| 20260901095043 | 18 | 248 | 0.0 | 3.2 | 0.13 | 0.33 | 0.33 | 94 | 1013.6 |
| 20260901094547 | 18 | 248 | 0.0 | 3.2 | 0.15 | 0.33 | 0.33 | 94 | 1013.6 |
| 20260901094044 | 18 | 246 | 1.6 | 3.2 | 0.15 | 0.33 | 0.33 | 94 | 1013.7 |
| 20260901093542 | 18 | 177 | 0.0 | 4.8 | 0.18 | 0.33 | 0.33 | 94 | 1013.5 |
| 20260901093042 | 18 | 177 | 0.0 | 6.4 | 0.18 | 0.33 | 0.33 | 94 | 1013.5 |
| 20260901092542 | 18 | 165 | 1.6 | 8.0 | 0.18 | 0.33 | 0.33 | 94 | 1013.4 |
| 20260901092042 | 18 | 161 | 0.0 | 0.0 | 0.18 | 0.33 | 0.33 | 94 | 1013.4 |
| 20260901091542 | 18 | 161 | 0.0 | 3.2 | 0.18 | 0.33 | 0.33 | 94 | 1013.4 |
| 20260901091044 | 18 | 161 | 0.0 | 3.2 | 0.18 | 0.33 | 0.33 | 94 | 1013.4 |
| 20260901090541 | 18 | 161 | 0.0 | 3.2 | 0.18 | 0.33 | 0.33 | 94 | 1013.4 |
| 20260901090049 | 18 | 161 | 0.0 | 3.2 | 0.15 | 0.28 | 0.28 | 94 | 1013.5 |
| 20260901085539 | 18 | 163 | 0.0 | 1.6 | 0.10 | 0.23 | 0.23 | 94 | 1013.5 |
| 20260901085039 | 18 | 163 | 0.0 | 3.2 | 0.08 | 0.20 | 0.20 | 94 | 1013.4 |
| 20260901084539 | 18 | 163 | 0.0 | 9.7 | 0.05 | 0.18 | 0.18 | 94 | 1013.4 |
| 20260901084039 | 18 | 163 | 1.6 | 9.7 | 0.05 | 0.18 | 0.18 | 94 | 1013.4 |
| 20260901083539 | 17 | 191 | 3.2 | 9.7 | 0.03 | 0.15 | 0.15 | 94 | 1013.4 |
| 20260901083038 | 17 | 181 | 1.6 | 9.7 | 0.05 | 0.15 | 0.15 | 94 | 1013.4 |
| 20260901082538 | 17 | 185 | 4.8 | 9.7 | 0.05 | 0.15 | 0.15 | 94 | 1013.4 |
| 20260901082038 | 17 | 197 | 3.2 | 8.0 | 0.05 | 0.15 | 0.15 | 94 | 1013.4 |
| 20260901081538 | 17 | 132 | 0.0 | 4.8 | 0.05 | 0.15 | 0.15 | 94 | 1013.4 |
| 20260901081036 | 17 | 132 | 3.2 | 6.4 | 0.05 | 0.15 | 0.15 | 94 | 1013.5 |
| 20260901080536 | 17 | 148 | 1.6 | 6.4 | 0.10 | 0.15 | 0.15 | 94 | 1013.4 |
| 20260901080048 | 17 | 138 | 1.6 | 4.8 | 0.08 | 0.13 | 0.13 | 94 | 1013.4 |
| 20260901075535 | 17 | 134 | 1.6 | 4.8 | 0.08 | 0.13 | 0.13 | 94 | 1013.6 |
| 20260901075034 | 17 | 131 | 3.2 | 6.4 | 0.08 | 0.13 | 0.13 | 94 | 1013.5 |
| 20260901074534 | 17 | 142 | 3.2 | 6.4 | 0.08 | 0.13 | 0.13 | 94 | 1013.7 |
| 20260901074034 | 17 | 155 | 1.6 | 4.8 | 0.08 | 0.13 | 0.13 | 94 | 1013.7 |
| 20260901073533 | 17 | 158 | 0.0 | 4.8 | 0.08 | 0.13 | 0.13 | 94 | 1013.6 |
| 20260901073136 | 17 | 137 | 0.0 | 3.2 | 0.05 | 0.10 | 0.10 | 94 | 1013.7 |
| 20260901072532 | 17 | 137 | 0.0 | 0.0 | 0.05 | 0.10 | 0.10 | 94 | 1013.8 |
| 20260901072032 | 17 | 137 | 0.0 | 0.0 | 0.05 | 0.10 | 0.10 | 94 | 1013.9 |
| 20260901071535 | 17 | 137 | 0.0 | 1.6 | 0.05 | 0.10 | 0.10 | 94 | 1014.0 |
| 20260901071031 | 17 | 137 | 0.0 | 3.2 | 0.05 | 0.10 | 0.10 | 94 | 1013.9 |
| 20260901070530 | 17 | 137 | 0.0 | 4.8 | 0.00 | 0.05 | 0.05 | 94 | 1014.0 |
| 20260901070030 | 17 | 137 | 1.6 | 4.8 | 0.03 | 0.05 | 0.05 | 94 | 1014.1 |
| 20260901065531 | 17 | 136 | 1.6 | 4.8 | 0.03 | 0.05 | 0.05 | 94 | 1014.2 |
| 20260901065028 | 17 | 136 | 0.0 | 4.8 | 0.03 | 0.05 | 0.05 | 94 | 1014.2 |
| 20260901064530 | 17 | 136 | 0.0 | 6.4 | 0.05 | 0.05 | 0.05 | 94 | 1014.2 |
| 20260901064027 | 17 | 136 | 3.2 | 6.4 | 0.05 | 0.05 | 0.05 | 94 | 1014.3 |
| 20260901063527 | 17 | 132 | 1.6 | 4.8 | 0.05 | 0.05 | 0.05 | 94 | 1014.3 |
| 20260901063045 | 17 | 130 | 1.6 | 3.2 | 0.05 | 0.05 | 0.05 | 94 | 1014.4 |
| 20260901062526 | 17 | 129 | 0.0 | 3.2 | 0.05 | 0.05 | 0.05 | 94 | 1014.5 |
| 20260901062026 | 17 | 129 | 0.0 | 6.4 | 0.05 | 0.05 | 0.05 | 94 | 1014.5 |
| 20260901061526 | 17 | 129 | 3.2 | 6.4 | 0.05 | 0.05 | 0.05 | 94 | 1014.5 |
| 20260901061025 | 17 | 151 | 1.6 | 4.8 | 0.05 | 0.05 | 0.05 | 94 | 1014.6 |
| 20260901060527 | 17 | 134 | 1.6 | 4.8 | 0.05 | 0.05 | 0.05 | 94 | 1014.7 |
| 20260901060024 | 17 | 142 | 1.6 | 6.4 | 0.03 | 0.03 | 0.03 | 94 | 1014.7 |
| 20260901055524 | 17 | 138 | 1.6 | 6.4 | 0.03 | 0.03 | 0.03 | 94 | 1014.6 |
| 20260901055024 | 17 | 136 | 3.2 | 6.4 | 0.03 | 0.03 | 0.03 | 94 | 1014.7 |
| 20260901054523 | 17 | 143 | 3.2 | 4.8 | 0.00 | 0.00 | 0.00 | 94 | 1014.7 |
| 20260901054022 | 17 | 143 | 3.2 | 6.4 | 0.00 | 0.00 | 0.00 | 94 | 1014.8 |
| 20260901053521 | 17 | 128 | 3.2 | 6.4 | 0.00 | 0.00 | 0.00 | 94 | 1014.8 |
| 20260901053021 | 17 | 111 | 1.6 | 4.8 | 0.00 | 0.00 | 0.00 | 94 | 1014.9 |
| 20260901052520 | 17 | 130 | 0.0 | 0.0 | 0.00 | 0.00 | 0.00 | 94 | 1015.0 |
| 20260901052024 | 17 | 130 | 0.0 | 0.0 | 0.00 | 0.00 | 0.00 | 94 | 1015.1 |
| 20260901051520 | 17 | 130 | 0.0 | 0.0 | 0.00 | 0.00 | 0.00 | 94 | 1015.1 |
| 20260901051020 | 17 | 132 | 0.0 | 3.2 | 0.00 | 0.00 | 0.00 | 94 | 1015.2 |
| 20260901050522 | 17 | 132 | 0.0 | 4.8 | 0.00 | 0.00 | 0.00 | 94 | 1015.2 |
| 20260901050020 | 17 | 133 | 0.0 | 4.8 | 0.00 | 0.00 | 0.00 | 94 | 1015.4 |
| 20260901045520 | 17 | 157 | 1.6 | 6.4 | 0.00 | 0.00 | 0.00 | 94 | 1015.4 |
| 20260901045019 | 17 | 171 | 1.6 | 6.4 | 0.00 | 0.00 | 0.00 | 94 | 1015.4 |
| 20260901044528 | 17 | 140 | 0.0 | 4.8 | 0.00 | 0.00 | 0.00 | 94 | 1015.4 |
| 20260901044018 | 17 | 140 | 3.2 | 6.4 | 0.00 | 0.00 | 0.00 | 94 | 1015.3 |
| 20260901043519 | 17 | 140 | 3.2 | 6.4 | 0.00 | 0.00 | 0.00 | 94 | 1015.2 |
| 20260901043018 | 17 | 132 | 3.2 | 6.4 | 0.00 | 0.00 | 0.00 | 94 | 1015.0 |
| 20260901042516 | 17 | 135 | 0.0 | 3.2 | 0.00 | 0.00 | 0.00 | 94 | 1015.1 |
| 20260901042016 | 17 | 135 | 0.0 | 3.2 | 0.00 | 0.00 | 0.00 | 94 | 1015.2 |
| 20260901041525 | 17 | 143 | 0.0 | 0.0 | 0.00 | 0.00 | 0.00 | 94 | 1015.2 |
| 20260901041015 | 17 | 143 | 0.0 | 0.0 | 0.00 | 0.00 | 0.00 | 93 | 1015.3 |
| 20260901040514 | 17 | 143 | 0.0 | 1.6 | 0.00 | 0.00 | 0.00 | 93 | 1015.4 |
| 20260901040014 | 17 | 143 | 0.0 | 1.6 | 0.00 | 0.00 | 0.00 | 93 | 1015.3 |
| 20260901035513 | 17 | 143 | 0.0 | 3.2 | 0.00 | 0.05 | 0.00 | 93 | 1015.3 |
| 20260901035013 | 17 | 143 | 1.6 | 4.8 | 0.00 | 0.05 | 0.00 | 93 | 1015.3 |
| 20260901034528 | 17 | 143 | 1.6 | 4.8 | 0.00 | 0.05 | 0.00 | 93 | 1015.2 |
| 20260901034012 | 17 | 144 | 1.6 | 4.8 | 0.00 | 0.05 | 0.00 | 93 | 1015.2 |
| 20260901033512 | 17 | 145 | 1.6 | 3.2 | 0.00 | 0.05 | 0.00 | 93 | 1015.3 |
| 20260901033012 | 17 | 145 | 0.0 | 0.0 | 0.00 | 0.05 | 0.00 | 93 | 1015.4 |
| 20260901032512 | 17 | 145 | 0.0 | 0.0 | 0.00 | 0.05 | 0.00 | 93 | 1015.4 |
| 20260901032015 | 17 | 145 | 0.0 | 0.0 | 0.00 | 0.05 | 0.00 | 93 | 1015.4 |
| 20260901031514 | 17 | 145 | 0.0 | 0.0 | 0.00 | 0.05 | 0.00 | 93 | 1015.4 |
| 20260901031009 | 17 | 145 | 0.0 | 1.6 | 0.00 | 0.05 | 0.00 | 93 | 1015.5 |
| 20260901030509 | 17 | 145 | 0.0 | 1.6 | 0.00 | 0.05 | 0.00 | 93 | 1015.6 |
| 20260901030012 | 17 | 145 | 0.0 | 3.2 | 0.00 | 0.05 | 0.00 | 93 | 1015.5 |
| 20260901025509 | 17 | 145 | 0.0 | 4.8 | 0.00 | 0.08 | 0.00 | 93 | 1015.6 |
| 20260901025011 | 17 | 142 | 0.0 | 4.8 | 0.00 | 0.08 | 0.00 | 93 | 1015.6 |
| 20260901024509 | 17 | 142 | 1.6 | 4.8 | 0.00 | 0.08 | 0.00 | 93 | 1015.6 |
| 20260901024010 | 17 | 140 | 0.0 | 6.4 | 0.00 | 0.08 | 0.00 | 93 | 1015.5 |
| 20260901023509 | 17 | 144 | 3.2 | 8.0 | 0.00 | 0.08 | 0.00 | 93 | 1015.5 |
| 20260901023008 | 17 | 134 | 1.6 | 4.8 | 0.00 | 0.08 | 0.00 | 93 | 1015.6 |
| 20260901022509 | 17 | 131 | 1.6 | 6.4 | 0.00 | 0.08 | 0.00 | 93 | 1015.6 |
| 20260901022012 | 17 | 134 | 3.2 | 6.4 | 0.00 | 0.08 | 0.00 | 93 | 1015.6 |
| 20260901021508 | 17 | 130 | 3.2 | 6.4 | 0.00 | 0.08 | 0.00 | 93 | 1015.7 |
| 20260901021008 | 17 | 126 | 3.2 | 4.8 | 0.00 | 0.08 | 0.00 | 93 | 1015.8 |
| 20260901020511 | 17 | 102 | 1.6 | 3.2 | 0.00 | 0.08 | 0.00 | 93 | 1016.0 |
| 20260901020007 | 17 | 98 | 0.0 | 3.2 | 0.00 | 0.08 | 0.00 | 93 | 1016.1 |
| 20260901015507 | 17 | 98 | 0.0 | 4.8 | 0.00 | 0.08 | 0.00 | 93 | 1016.3 |
| 20260901015007 | 17 | 98 | 0.0 | 4.8 | 0.00 | 0.08 | 0.00 | 93 | 1016.2 |
| 20260901014507 | 17 | 130 | 1.6 | 3.2 | 0.00 | 0.08 | 0.00 | 93 | 1016.2 |
| 20260901014007 | 17 | 133 | 0.0 | 3.2 | 0.00 | 0.08 | 0.00 | 93 | 1016.1 |
| 20260901013507 | 17 | 133 | 0.0 | 4.8 | 0.00 | 0.08 | 0.00 | 92 | 1016.1 |
| 20260901013006 | 17 | 130 | 1.6 | 4.8 | 0.00 | 0.08 | 0.00 | 92 | 1016.1 |
| 20260901012507 | 17 | 136 | 1.6 | 4.8 | 0.00 | 0.08 | 0.00 | 92 | 1016.2 |
| 20260901012006 | 17 | 132 | 0.0 | 8.0 | 0.00 | 0.08 | 0.00 | 92 | 1016.2 |
| 20260901011508 | 17 | 150 | 1.6 | 8.0 | 0.00 | 0.08 | 0.00 | 92 | 1016.1 |
| 20260901011006 | 17 | 124 | 1.6 | 4.8 | 0.00 | 0.08 | 0.00 | 92 | 1016.0 |
| 20260901010506 | 17 | 124 | 1.6 | 4.8 | 0.00 | 0.08 | 0.00 | 92 | 1016.0 |
| 20260901010012 | 17 | 115 | 1.6 | 3.2 | 0.00 | 0.08 | 0.00 | 92 | 1015.9 |
| 20260901005506 | 17 | 113 | 0.0 | 3.2 | 0.00 | 0.08 | 0.00 | 92 | 1015.8 |
| 20260901005006 | 17 | 113 | 0.0 | 3.2 | 0.00 | 0.08 | 0.00 | 92 | 1015.8 |
| 20260901004505 | 17 | 113 | 0.0 | 3.2 | 0.00 | 0.08 | 0.00 | 92 | 1015.9 |
| 20260901004005 | 17 | 113 | 0.0 | 0.0 | 0.00 | 0.08 | 0.00 | 92 | 1015.9 |
| 20260901003507 | 17 | 113 | 0.0 | 3.2 | 0.00 | 0.08 | 0.00 | 92 | 1015.9 |
| 20260901003007 | 17 | 113 | 0.0 | 3.2 | 0.00 | 0.08 | 0.00 | 92 | 1015.8 |
| 20260901002505 | 17 | 113 | 0.0 | 3.2 | 0.00 | 0.08 | 0.00 | 92 | 1015.8 |
| 20260901002005 | 17 | 113 | 0.0 | 3.2 | 0.00 | 0.08 | 0.00 | 92 | 1015.7 |
| 20260901001508 | 17 | 114 | 0.0 | 3.2 | 0.00 | 0.08 | 0.00 | 92 | 1015.7 |
| 20260901001004 | 17 | 111 | 0.0 | 4.8 | 0.00 | 0.08 | 0.00 | 91 | 1015.6 |
| 20260901000503 | 17 | 113 | 0.0 | 4.8 | 0.00 | 0.08 | 0.00 | 91 | 1015.6 |
| 20260901000003 | 17 | 124 | 0.0 | 3.2 | 0.00 | 0.08 | 0.00 | 91 | 1015.8 |
| 20260831235503 | 17 | 124 | 0.0 | 3.2 | 0.00 | 0.08 | 0.00 | 91 | 1015.8 |
| 20260831235003 | 17 | 125 | 0.0 | 3.2 | 0.00 | 0.08 | 0.00 | 91 | 1015.9 |
| 20260831234502 | 17 | 124 | 0.0 | 3.2 | 0.00 | 0.08 | 0.00 | 91 | 1015.8 |
| 20260831234002 | 17 | 125 | 0.0 | 3.2 | 0.00 | 0.08 | 0.00 | 91 | 1015.8 |
| 20260831233503 | 17 | 125 | 0.0 | 4.8 | 0.00 | 0.08 | 0.00 | 91 | 1015.8 |
| 20260831233002 | 17 | 142 | 0.0 | 3.2 | 0.00 | 0.08 | 0.00 | 91 | 1015.8 |
| 20260831232502 | 17 | 142 | 0.0 | 3.2 | 0.00 | 0.08 | 0.00 | 91 | 1016.0 |
| 20260831232100 | 17 | 142 | 0.0 | 3.2 | 0.00 | 0.08 | 0.00 | 91 | 1016.0 |
| 20260831231603 | 17 | 142 | 0.0 | 4.8 | 0.00 | 0.08 | 0.00 | 90 | 1016.0 |
| 20260831231059 | 17 | 142 | 0.0 | 4.8 | 0.00 | 0.08 | 0.00 | 90 | 1016.1 |
| 20260831230558 | 17 | 142 | 1.6 | 4.8 | 0.00 | 0.08 | 0.00 | 90 | 1016.2 |
| 20260831230059 | 17 | 142 | 0.0 | 6.4 | 0.00 | 0.08 | 0.00 | 90 | 1016.2 |
| 20260831225559 | 17 | 142 | 1.6 | 6.4 | 0.00 | 0.08 | 0.00 | 90 | 1016.2 |
| 20260831225100 | 17 | 148 | 1.6 | 4.8 | 0.00 | 0.08 | 0.00 | 90 | 1016.2 |
| 20260831224558 | 17 | 148 | 1.6 | 4.8 | 0.00 | 0.08 | 0.00 | 90 | 1016.2 |
| 20260831224057 | 17 | 148 | 1.6 | 4.8 | 0.00 | 0.08 | 0.00 | 89 | 1016.2 |
| 20260831223558 | 17 | 149 | 0.0 | 8.0 | 0.00 | 0.08 | 0.00 | 89 | 1016.3 |
| 20260831223100 | 17 | 149 | 0.0 | 3.2 | 0.00 | 0.08 | 0.00 | 89 | 1016.3 |
| 20260831222556 | 17 | 149 | 0.0 | 4.8 | 0.00 | 0.08 | 0.00 | 89 | 1016.4 |
| 20260831222056 | 17 | 149 | 1.6 | 4.8 | 0.00 | 0.08 | 0.00 | 89 | 1016.4 |
| 20260831221556 | 17 | 153 | 3.2 | 8.0 | 0.00 | 0.08 | 0.00 | 89 | 1016.4 |
| 20260831221054 | 17 | 150 | 1.6 | 8.0 | 0.00 | 0.08 | 0.00 | 89 | 1016.4 |
| 20260831220554 | 17 | 169 | 0.0 | 4.8 | 0.00 | 0.08 | 0.00 | 89 | 1016.5 |
| 20260831220054 | 17 | 169 | 1.6 | 4.8 | 0.00 | 0.08 | 0.00 | 88 | 1016.5 |
| 20260831215553 | 17 | 167 | 1.6 | 4.8 | 0.00 | 0.10 | 0.00 | 89 | 1016.6 |
| 20260831215053 | 17 | 147 | 0.0 | 8.0 | 0.00 | 0.10 | 0.00 | 89 | 1016.7 |
| 20260831214604 | 17 | 144 | 3.2 | 8.0 | 0.00 | 0.10 | 0.00 | 89 | 1016.6 |
| 20260831214052 | 17 | 144 | 1.6 | 4.8 | 0.00 | 0.10 | 0.00 | 89 | 1016.6 |
| 20260831213552 | 17 | 141 | 1.6 | 3.2 | 0.00 | 0.10 | 0.00 | 89 | 1016.6 |
| 20260831213100 | 17 | 142 | 1.6 | 4.8 | 0.00 | 0.10 | 0.00 | 89 | 1016.7 |
| 20260831212554 | 17 | 142 | 1.6 | 4.8 | 0.00 | 0.10 | 0.00 | 89 | 1016.6 |
| 20260831212051 | 17 | 142 | 0.0 | 3.2 | 0.00 | 0.10 | 0.00 | 89 | 1016.8 |
| 20260831211551 | 17 | 143 | 0.0 | 3.2 | 0.00 | 0.10 | 0.00 | 89 | 1016.9 |
| 20260831211050 | 17 | 146 | 0.0 | 4.8 | 0.00 | 0.10 | 0.00 | 89 | 1016.8 |
| 20260831210549 | 17 | 146 | 1.6 | 8.0 | 0.00 | 0.10 | 0.00 | 89 | 1016.9 |
| 20260831210049 | 17 | 194 | 3.2 | 8.0 | 0.00 | 0.10 | 0.00 | 88 | 1016.9 |
| 20260831205549 | 17 | 186 | 3.2 | 11.3 | 0.00 | 0.15 | 0.00 | 87 | 1016.9 |
| 20260831205048 | 18 | 198 | 3.2 | 11.3 | 0.00 | 0.15 | 0.00 | 86 | 1017.0 |
| 20260831204554 | 18 | 194 | 3.2 | 9.7 | 0.00 | 0.15 | 0.00 | 86 | 1017.0 |
| 20260831204051 | 18 | 162 | 0.0 | 8.0 | 0.00 | 0.15 | 0.00 | 85 | 1017.0 |
| 20260831203550 | 18 | 163 | 1.6 | 8.0 | 0.00 | 0.15 | 0.00 | 83 | 1017.0 |
| 20260831203058 | 18 | 155 | 0.0 | 8.0 | 0.00 | 0.15 | 0.00 | 82 | 1017.0 |
| 20260831202549 | 18 | 153 | 3.2 | 8.0 | 0.00 | 0.15 | 0.00 | 82 | 1017.0 |
| 20260831202048 | 18 | 100 | 0.0 | 1.6 | 0.00 | 0.15 | 0.00 | 81 | 1017.1 |
| 20260831201556 | 18 | 100 | 0.0 | 1.6 | 0.00 | 0.15 | 0.00 | 81 | 1017.0 |
| 20260831201047 | 18 | 100 | 0.0 | 3.2 | 0.00 | 0.15 | 0.00 | 81 | 1017.0 |
| 20260831200546 | 18 | 100 | 1.6 | 3.2 | 0.00 | 0.15 | 0.00 | 81 | 1017.0 |
| 20260831200046 | 18 | 100 | 1.6 | 3.2 | 0.00 | 0.15 | 0.00 | 80 | 1017.1 |
| 20260831195549 | 18 | 100 | 1.6 | 3.2 | 0.00 | 0.15 | 0.00 | 80 | 1017.1 |
| 20260831195048 | 18 | 100 | 1.6 | 4.8 | 0.00 | 0.15 | 0.00 | 80 | 1017.2 |
| 20260831194546 | 18 | 100 | 1.6 | 4.8 | 0.00 | 0.15 | 0.00 | 80 | 1017.4 |
| 20260831194044 | 18 | 113 | 1.6 | 4.8 | 0.00 | 0.15 | 0.00 | 80 | 1017.3 |
| 20260831193544 | 18 | 113 | 1.6 | 4.8 | 0.00 | 0.15 | 0.00 | 79 | 1017.3 |
| 20260831193113 | 18 | 138 | 1.6 | 4.8 | 0.00 | 0.15 | 0.00 | 79 | 1017.4 |
| 20260831192543 | 18 | 138 | 1.6 | 6.4 | 0.00 | 0.15 | 0.00 | 79 | 1017.5 |
| 20260831192047 | 18 | 138 | 1.6 | 9.7 | 0.00 | 0.15 | 0.00 | 79 | 1017.5 |
| 20260831191543 | 18 | 108 | 0.0 | 9.7 | 0.00 | 0.15 | 0.00 | 79 | 1017.5 |
| 20260831191042 | 18 | 179 | 3.2 | 14.5 | 0.00 | 0.15 | 0.00 | 77 | 1017.6 |
| 20260831190542 | 18 | 146 | 9.7 | 14.5 | 0.00 | 0.15 | 0.00 | 77 | 1017.6 |
| 20260831190046 | 18 | 198 | 4.8 | 11.3 | 0.00 | 0.15 | 0.00 | 77 | 1017.6 |
| 20260831185541 | 19 | 141 | 6.4 | 11.3 | 0.00 | 0.15 | 0.00 | 75 | 1017.7 |
| 20260831185040 | 19 | 157 | 4.8 | 9.7 | 0.00 | 0.15 | 0.00 | 76 | 1017.7 |
| 20260831184540 | 19 | 205 | 4.8 | 9.7 | 0.00 | 0.15 | 0.00 | 74 | 1017.8 |
| 20260831184042 | 19 | 205 | 1.6 | 8.0 | 0.00 | 0.15 | 0.00 | 76 | 1017.8 |
| 20260831183640 | 19 | 212 | 1.6 | 11.3 | 0.00 | 0.15 | 0.00 | 76 | 1017.9 |
| 20260831183044 | 19 | 200 | 6.4 | 11.3 | 0.00 | 0.15 | 0.00 | 77 | 1017.9 |
| 20260831182539 | 19 | 151 | 1.6 | 9.7 | 0.00 | 0.15 | 0.00 | 78 | 1017.9 |
| 20260831182039 | 19 | 189 | 0.0 | 9.7 | 0.00 | 0.15 | 0.00 | 78 | 1018.0 |
| 20260831181550 | 19 | 197 | 4.8 | 8.0 | 0.00 | 0.15 | 0.00 | 76 | 1018.0 |
| 20260831181038 | 19 | 209 | 0.0 | 3.2 | 0.00 | 0.15 | 0.00 | 79 | 1018.2 |
| 20260831180538 | 19 | 208 | 1.6 | 6.4 | 0.00 | 0.15 | 0.00 | 79 | 1018.1 |
| 20260831180039 | 19 | 208 | 0.0 | 6.4 | 0.00 | 0.15 | 0.00 | 79 | 1018.2 |
| 20260831175541 | 19 | 221 | 1.6 | 6.4 | 0.00 | 0.15 | 0.00 | 80 | 1018.2 |
| 20260831175037 | 19 | 227 | 1.6 | 12.9 | 0.00 | 0.15 | 0.00 | 80 | 1018.2 |
| 20260831174537 | 19 | 217 | 0.0 | 12.9 | 0.00 | 0.15 | 0.00 | 80 | 1018.2 |
| 20260831174038 | 19 | 190 | 1.6 | 12.9 | 0.00 | 0.15 | 0.00 | 81 | 1018.3 |
| 20260831173539 | 19 | 202 | 1.6 | 9.7 | 0.00 | 0.15 | 0.00 | 81 | 1018.3 |
| 20260831173036 | 19 | 209 | 1.6 | 9.7 | 0.00 | 0.15 | 0.00 | 80 | 1018.3 |
| 20260831172536 | 19 | 167 | 4.8 | 12.9 | 0.00 | 0.15 | 0.00 | 80 | 1018.4 |
| 20260831172036 | 19 | 238 | 3.2 | 17.7 | 0.00 | 0.15 | 0.00 | 80 | 1018.4 |
| 20260831171536 | 19 | 213 | 6.4 | 17.7 | 0.00 | 0.15 | 0.00 | 79 | 1018.5 |
| 20260831171035 | 19 | 195 | 6.4 | 9.7 | 0.00 | 0.15 | 0.00 | 79 | 1018.4 |
| 20260831170537 | 19 | 188 | 1.6 | 8.0 | 0.00 | 0.15 | 0.00 | 79 | 1018.6 |
| 20260831170036 | 19 | 194 | 1.6 | 9.7 | 0.00 | 0.15 | 0.00 | 79 | 1018.6 |
| 20260831165534 | 19 | 197 | 4.8 | 9.7 | 0.00 | 0.15 | 0.00 | 78 | 1018.6 |
| 20260831165034 | 19 | 131 | 3.2 | 12.9 | 0.00 | 0.15 | 0.00 | 78 | 1018.6 |
| 20260831164549 | 19 | 133 | 4.8 | 12.9 | 0.00 | 0.15 | 0.00 | 78 | 1018.8 |
| 20260831164034 | 19 | 184 | 6.4 | 14.5 | 0.00 | 0.15 | 0.00 | 78 | 1018.8 |
| 20260831163534 | 19 | 137 | 6.4 | 12.9 | 0.00 | 0.15 | 0.00 | 78 | 1018.6 |
| 20260831163033 | 19 | 198 | 6.4 | 11.3 | 0.00 | 0.15 | 0.00 | 78 | 1018.7 |
| 20260831162534 | 19 | 128 | 4.8 | 11.3 | 0.00 | 0.15 | 0.00 | 79 | 1018.6 |
| 20260831162036 | 18 | 134 | 3.2 | 11.3 | 0.00 | 0.15 | 0.00 | 79 | 1018.6 |